Regional Weather Roundup
Issued by NWS

Home | Current Version | Previous Version | Text Only | Print | Product List | Glossary On
Versions: 1 2 3 4 5 6 7 8 9 10 11 12 13 14 15 16 17 18 19 20 21 22 23 24 25 26 27 28 29 30 31 32 33 34 35 36 37 38 39 40 41 42 43 44 45 46 47 48 49 50
000
ASUS46 KLOX 050913
RWRCA

SOUTHERN CALIFORNIA WEATHER ROUNDUP
NATIONAL WEATHER SERVICE OXNARD CALIFORNIA
200 AM PDT WED AUG 05 2015

NOTE: "FAIR" INDICATES FEW OR NO CLOUDS BELOW 12,000 FEET WITH NO
SIGNIFICANT WEATHER AND/OR OBSTRUCTIONS TO VISIBILITY.

  -  STATIONS PRECEEDED BY AN ASTERISK (*) ARE NOT NWS OR FAA
     STATIONS AND ARE NOT SUBJECT TO NWS AND FAA QUALITY CONTROL.

CAZ041-042-087-051000-
LA AND ORANGE COUNTY COASTAL AREAS


CITY           SKY/WX    TMP DP  RH WIND       PRES   REMARKS
L.A. DOWNTOWN  MOCLDY    71  61  70 CALM      29.89F
L.A. AIRPORT   MOCLDY    68  63  84 S5        29.90F
LONG BEACH     PTCLDY    71  61  70 CALM      29.90F

CITY           SKY/WX    TMP DP  RH WIND       PRES   REMARKS
AVALON           N/A     66 N/A N/A S7          N/A
FULLERTON      CLEAR     72  59  63 CALM      29.89F
*GETTY CENTER    N/A     72  52  49 N7          N/A
HAWTHORNE      MOCLDY    69  62  78 S3        29.90F
*LOS ALAMITOS  FAIR      69  61  77 CALM      29.90F
*REDONDO BEACH   N/A     67  61  82 SW1       29.91S
SANTA ANA      CLEAR     69  61  75 SE3       29.90F
STA MONICA APT MOCLDY    70  61  73 E3        29.90F
*STA MON PIER    N/A     71  63  77 CALM      29.89F
*UCLA            N/A     70  59  68 CALM      29.88F

$$

CAZ547-548-048-051000-
LA COUNTY VALLEYS AND INLAND EMPIRE


CITY           SKY/WX    TMP DP  RH WIND       PRES   REMARKS
BURBANK        MOCLDY    74  58  57 CALM      29.91F
VAN NUYS       MOCLDY    75  54  47 CALM      29.92F

CITY           SKY/WX    TMP DP  RH WIND       PRES   REMARKS
CORONA AIRPORT SUNNY     63  55  75 CALM      29.93F
CHINO          CLEAR     67  57  70 CALM      29.93F
MARCH AFB      CLEAR     69  54  58 CALM      29.95F
*NORTHRIDGE      N/A     72  52  49 CALM        N/A
ONTARIO        PTCLDY    72  52  49 CALM      29.93F
*PASADENA        N/A    N/A N/A N/A E1          N/A
RIVERSIDE      CLEAR     73  57  57 CALM      29.93F
SAN BERNARDINO NOT AVBL
*WHITEMAN AP   NOT AVBL
*WOODLAND HILL   N/A     70  52  52 S1          N/A

$$

CAZ054-055-051000-
LA AND SAN BERNARDINO COUNTY MOUNTAINS


CITY           SKY/WX    TMP DP  RH WIND       PRES   REMARKS
*BIG BEAR AIRP SUNNY     50  30  46 CALM      30.29F
SANDBERG       PTCLDY    68  48  48 W14       30.13F

$$

CAZ028-029-059-060-099-051000-
ANTELOPE VALLEY AND SURROUNDING AREAS


CITY           SKY/WX    TMP DP  RH WIND       PRES   REMARKS
LANCASTER      MOCLDY    74  51  44 W8        29.99F
PALMDALE       MOCLDY    74  46  36 CALM      30.00F

CITY           SKY/WX    TMP DP  RH WIND       PRES   REMARKS
29 PALMS       CLEAR     79  38  22 NW8       29.98S
BARSTOW/DAGGET CLEAR     82  42  24 W18       29.93S
BISHOP         PTCLDY    75  38  26 N9        30.01R
CHINA LAKE     MOCLDY    82  39  21 SW15      29.91F
EDWARDS AFB    PTCLDY    73  52  46 VRB3      29.96F
MOJAVE         CLEAR     75  48  38 VRB6G12   30.00R
NEEDLES        CLEAR     92  36  14 W14       29.80R
VICTORVILLE    CLEAR     73  43  33 SW5       30.02F

$$

CAZ039-040-051000-
VENTURA AND SANTA BARBARA COUNTY COAST


CITY           SKY/WX    TMP DP  RH WIND       PRES   REMARKS
CAMARILLO      PTCLDY    66  58  75 CALM      29.91F
OXNARD AIRPORT CLEAR     66  60  81 NW3       29.91F
*POINT MUGU    PTCLDY    65  59  81 N3        29.91F
SBA APT/GOLETA CLEAR     69  60  73 E7        29.89S
*SANTA BARBARA   N/A     69  60  71 CALM      29.97S
*VENTURA         N/A     65  58  79 CALM      29.53S

$$

CAZ044-045-051000-
VENTURA COUNTY VALLEYS


CITY           SKY/WX    TMP DP  RH WIND       PRES   REMARKS
*OJAI            N/A     62  57  83 CALM      29.85S
*FILLMORE        N/A     64  58  80 SW6       29.82S

$$

CAZ053-051000-
VENTURA COUNTY MOUNTAINS


CITY           SKY/WX    TMP DP  RH WIND       PRES   REMARKS

$$

CAZ034-035-036-051000-
CENTRAL COAST AND SANTA YNEZ VALLEY


CITY           SKY/WX    TMP DP  RH WIND       PRES   REMARKS
SAN LUIS OBISP PTCLDY    62  57  83 N5        29.97F
SANTA MARIA    CLEAR     61  58  90 CALM      29.97F

CITY           SKY/WX    TMP DP  RH WIND       PRES   REMARKS
*LOMPOC        CLEAR     55  48  76 E5        29.98F
*PISMO BEACH     N/A     62  58  88 N1        29.98S
*SANTA YNEZ    FAIR      59  52  77 CALM      29.98F

$$

CAZ037-038-051-051000-
SAN LUIS OBISPO COUNTY INTERIOR AND CUYAMA VALLEY


CITY           SKY/WX    TMP DP  RH WIND       PRES   REMARKS
*CUYAMA          N/A     62  51  68 W1        29.92F
PASO ROBLES    MOCLDY    62  54  74 NW9       30.00F

$$

CAZ032-033-061-051000-
SOUTHERN DESERTS


CITY           SKY/WX    TMP DP  RH WIND       PRES   REMARKS
BLYTHE         CLEAR     90  51  26 S7        29.78S
IMPERIAL       CLEAR     87  49  26 CALM      29.76S
PALM SPRINGS   CLEAR     89  48  24 E5        29.80F
THERMAL        CLEAR     89  44  20 NW8       29.74R

$$

ELSEWHERE ACROSS THE WESTERN UNITED STATES AND MEXICO


CITY           SKY/WX    TMP DP  RH WIND       PRES   REMARKS
DENVER, CO     CLEAR     62  51  67 SW8       30.15S
GRAND CANYON,  CLEAR     46  30  53 CALM      30.30S
HONOLULU, HI   PTCLDY    82  72  69 NE9       29.90S
KAHULUI, MAUI  CLOUDY    81  72  74 NE13      29.91R
LAKE TAHOE, CA CLEAR     51  40  65 CALM      30.18F
LAS VEGAS, NV  PTCLDY    91  39  16 S12G23    29.83S
MAMMOTH LAKES, NOT AVBL
MEXICO CITY, M MOCLDY    63  54  72 W7        30.35F
PHOENIX, AZ    CLEAR     97  47  18 W5        29.82S HX  93
PORTLAND, OR   PTCLDY    60  52  74 NW7       30.05S
RENO, NV       PTCLDY    68  43  40 S3        30.07S
SALT LAKE CITY MOCLDY    74  50  42 SE13      29.95S
SAN DIEGO, CA  CLEAR     71  65  81 CALM      29.93F
SAN FRANCISCO, PTCLDY    62  55  77 CALM      30.01S
SAN JOSE, CA   CLEAR     64  56  75 NW3       30.00F
SEATTLE, WA    PTCLDY    60  51  72 CALM      30.04S
TIJUANA, MEX   CLEAR     68  63  83 CALM      29.96R

$$

STATION/POSITION TIME  TEMP    WIND        PRES    VSBY  WAVE
                       AIR SEA DIR/SP/G                  HT/PER
                 (UTC) (F)     (DEG/KT/KT) (MB)    (MI)  (FT/S)
POINT ARGUELLO B NOT AVBL
WEST SANTA BARBA 0850   63 63  330/ 19/ 21 1012.3F         3/ 4
POINT CONCEPTION NOT AVBL
EAST SANTA BARBA 0900   66 64  250/  4/  4 1012.6F
SANTA MONICA BAY 0850   69 72  340/ 12/ 16 1012.5F         5/ 6



USA.gov is the U.S. government's official web portal to all federal, state and local government web resources and services.